[[{"header":{"parameterUnit":"m.s-1","parameterCategory":1,"la1":30.2991,"la2":30.254,"lo1":-89.0895,"lo2":-89.0444,"dy":0.0017,"dx":0.0017,"nx":28,"ny":28,"refTime":"2025-09-06T03:00:00:Z","depth":0,"parameterNumber":2,"parameterNumberName":"U-component_of_WINDS"},"data":[0,0,0,0,0,0,0,0,0,0,0,0,0,0,0,0,0,0,0,0,0,0,0,0,0,0,0,0,0,0,0,0,0,0,0,0,0,0,0,0,0,0,0,0,0,0,0,0,0,0,0,0,0,0,0,0,0,0,-0.6103,-0.6103,0,-0.6088,-0.6088,-0.6088,-0.6082,-0.6082,-0.6082,-0.6082,-0.6065,-0.6065,-0.6064,0,0,0,0,0,0,0,0,0,0,0,0,0,-0.6125,-0.6124,-0.6103,-0.6103,-0.6103,-0.6088,-0.6088,-0.6088,-0.6082,-0.6082,-0.6082,-0.6082,-0.6066,-0.6065,-0.6064,0,0,0,0,0,0,0,0,0,0,0,0,0,-0.6113,-0.6124,-0.6103,-0.6098,-0.6097,-0.6088,-0.6088,-0.6088,-0.6082,-0.6082,-0.6082,-0.6082,-0.6066,-0.6065,-0.6064,-0.6059,0,0,-0.6062,-0.6062,0,0,0,0,0,0,0,0,-0.6114,-0.6112,-0.6099,-0.6098,-0.6098,-0.6087,-0.609,-0.6078,-0.6082,-0.6087,-0.6082,-0.6082,-0.6072,-0.6071,-0.6068,-0.6059,-0.6058,-0.6062,-0.6062,-0.6062,-0.6061,0,0,0,0,0,0,0,-0.6115,-0.6113,-0.6097,-0.6099,-0.6098,-0.6096,-0.6094,-0.6088,-0.608,-0.6087,-0.6086,-0.6085,-0.6072,-0.6069,-0.6068,-0.6058,-0.6062,-0.6062,-0.6061,-0.6061,-0.6042,-0.6042,0,0,0,0,0,0,-0.6116,-0.6114,-0.6098,-0.6097,-0.6106,-0.6095,-0.6094,-0.609,-0.608,-0.6078,-0.6085,-0.6085,-0.607,-0.6069,-0.6067,-0.606,-0.6062,-0.6061,-0.606,-0.6042,-0.6042,-0.6042,0,0,0,0,0,0,-0.6117,-0.6115,-0.6098,-0.6105,-0.6103,-0.6095,-0.6091,-0.609,-0.6087,-0.6078,-0.6077,-0.6083,-0.607,-0.6068,-0.6061,-0.606,-0.6061,-0.606,-0.6042,-0.6042,-0.6042,-0.6046,0,0,0,0,0,0,-0.6118,-0.6115,-0.6114,-0.6105,-0.6103,-0.6093,-0.6091,-0.609,-0.6086,-0.6085,-0.6076,-0.6075,-0.607,-0.6062,-0.6061,-0.6059,-0.6059,-0.6042,-0.6042,-0.6042,-0.6046,-0.6046,-0.6047,0,0,0,0,0,-0.6118,-0.6116,-0.6114,-0.6112,-0.61,-0.6093,-0.6091,-0.6086,-0.6086,-0.6084,-0.6078,-0.6075,-0.606,-0.6062,-0.606,-0.6058,-0.6043,-0.6042,-0.6042,-0.6046,-0.6046,-0.6047,0,0,0,0,0,0,-0.6124,-0.6114,-0.6112,-0.6107,-0.6101,-0.6092,-0.6089,-0.6086,-0.608,-0.608,-0.6073,-0.6071,-0.6065,-0.606,-0.6062,-0.6052,-0.6051,-0.605,-0.6055,-0.6055,-0.6055,-0.6056,-0.6059,0,0,0,0,0,-0.6125,-0.612,-0.6111,-0.6107,-0.6104,-0.6097,-0.6094,-0.609,-0.6084,-0.6081,-0.6075,-0.6069,-0.6062,-0.6058,-0.6052,-0.6046,-0.6043,-0.6043,-0.6043,-0.6043,-0.6043,-0.6038,-0.6038,-0.6041,-0.6041,-0.6041,0,0,-0.6126,-0.612,-0.6117,-0.6108,-0.6103,-0.6098,-0.6095,-0.609,-0.6086,-0.608,-0.6073,-0.6069,-0.6061,-0.6054,-0.6051,-0.605,-0.6041,-0.6043,-0.6043,-0.6043,-0.6038,-0.6038,-0.6037,-0.6041,-0.6041,-0.6041,0,0,-0.6125,-0.6121,-0.6116,-0.6111,-0.6104,-0.6099,-0.6098,-0.6089,-0.6086,-0.6079,-0.6075,-0.6069,-0.6059,-0.6053,-0.6049,-0.6045,-0.6042,-0.6043,-0.6044,-0.6039,-0.6039,-0.6039,-0.6037,-0.6037,-0.6043,-0.6043,-0.6043,0,-0.6128,-0.612,-0.6114,-0.6109,-0.6105,-0.61,-0.6095,-0.609,-0.6081,-0.6078,-0.6077,-0.6064,-0.6058,-0.6049,-0.6049,-0.6045,-0.6043,-0.6044,-0.604,-0.6039,-0.6039,-0.6037,-0.6037,-0.6043,-0.6043,-0.6043,-0.6043,0,-0.6123,-0.6118,-0.6115,-0.6106,-0.6102,-0.6097,-0.609,-0.6086,-0.6082,-0.6077,-0.607,-0.6063,-0.6055,-0.6052,-0.6049,-0.6043,-0.6043,-0.6041,-0.604,-0.6039,-0.6037,-0.6037,-0.6043,-0.6043,-0.6043,-0.6043,0,0,-0.6126,-0.6114,-0.6113,-0.6109,-0.61,-0.6095,-0.609,-0.6082,-0.6078,-0.6072,-0.6067,-0.6057,-0.6056,-0.6051,-0.6046,-0.6043,-0.604,-0.6041,-0.6041,-0.6041,-0.6032,-0.6033,-0.6033,-0.6037,-0.6037,-0.6037,-0.6033,0,-0.6124,-0.6115,-0.6109,-0.6101,-0.6096,-0.609,-0.6085,-0.6079,-0.6074,-0.6068,-0.6062,-0.6056,-0.6054,-0.6051,-0.6047,-0.6041,-0.6038,-0.6041,-0.6032,-0.6032,-0.6034,-0.6032,-0.6034,-0.603,-0.6032,-0.6032,-0.6032,0,-0.6121,-0.6115,-0.6106,-0.6097,-0.6095,-0.6091,-0.6083,-0.6077,-0.607,-0.6066,-0.606,-0.6056,-0.6049,-0.6049,-0.6039,-0.6041,-0.6037,-0.6033,-0.6033,-0.6032,-0.6032,-0.6031,-0.6028,-0.6028,-0.6031,-0.6031,-0.6031,0,-0.6124,-0.6113,-0.6107,-0.6103,-0.6093,-0.6089,-0.6085,-0.6077,-0.6073,-0.6065,-0.6062,-0.6054,-0.605,-0.6044,-0.6037,-0.6037,-0.6028,-0.6027,-0.6024,-0.6024,-0.6022,-0.6023,-0.6019,-0.602,-0.602,-0.602,-0.602,0,-0.6122,-0.6117,-0.6108,-0.6104,-0.6098,-0.6091,-0.6085,-0.608,-0.6073,-0.6068,-0.6062,-0.6057,-0.6049,-0.6042,-0.6037,-0.6029,-0.6027,-0.6024,-0.6022,-0.6024,-0.6025,-0.6021,-0.6021,-0.602,-0.602,-0.602,-0.602,0,-0.6124,-0.6118,-0.611,-0.6101,-0.6098,-0.6094,-0.6086,-0.6081,-0.6076,-0.6069,-0.6067,-0.6058,-0.605,-0.6043,-0.6032,-0.6028,-0.602,-0.6019,-0.6023,-0.6022,-0.602,-0.602,-0.6015,-0.6013,-0.6015,-0.6015,-0.6015,0,-0.6124,-0.612,-0.611,-0.6106,-0.6101,-0.6095,-0.609,-0.6083,-0.6079,-0.6069,-0.6066,-0.6057,-0.605,-0.6038,-0.603,-0.6022,-0.6019,-0.6018,-0.6018,-0.602,-0.6019,-0.6019,-0.6019,-0.6018,-0.6018,-0.6018,-0.6018,0,-0.6123,-0.612,-0.6114,-0.6106,-0.6101,-0.6094,-0.6088,-0.6085,-0.6076,-0.6071,-0.6063,-0.6057,-0.6046,-0.6038,-0.6028,-0.6023,-0.6019,-0.6018,-0.6017,-0.6019,-0.6022,-0.602,-0.6023,-0.6018,-0.6018,-0.6018,-0.6018,-0.6018,-0.6124,-0.612,-0.6112,-0.6105,-0.61,-0.6093,-0.6089,-0.6082,-0.6076,-0.6066,-0.6062,-0.6054,-0.6045,-0.6032,-0.6027,-0.602,-0.6019,-0.6017,-0.6017,-0.6017,-0.6017,-0.6023,-0.6018,-0.6018,-0.6018,-0.6018,-0.6018,0,-0.6123,-0.6118,-0.6111,-0.6102,-0.6096,-0.6093,-0.6085,-0.6081,-0.6074,-0.6066,-0.6059,-0.6049,-0.6041,-0.6032,-0.6023,-0.6019,-0.6017,-0.6017,-0.6017,-0.6016,-0.6018,-0.602,-0.6019,-0.6019,-0.6019,-0.6019,-0.6019,-0.6019,-0.6122,-0.6115,-0.6111,-0.6101,-0.6095,-0.6087,-0.6083,-0.6077,-0.6071,-0.606,-0.6053,-0.6048,-0.604,-0.603,-0.6022,-0.6019,-0.6016,-0.6017,-0.6014,-0.6016,-0.6016,-0.6016,-0.6018,-0.6016,-0.6016,-0.6012,-0.6012,-0.6012]},{"header":{"parameterUnit":"m.s-1","parameterCategory":1,"la1":30.2991,"la2":30.254,"lo1":-89.0895,"lo2":-89.0444,"dy":0.0017,"dx":0.0017,"nx":28,"ny":28,"refTime":"2025-09-06T03:00:00:Z","depth":0,"parameterNumber":3,"parameterNumberName":"V-component_of_WINDS"},"data":[0,0,0,0,0,0,0,0,0,0,0,0,0,0,0,0,0,0,0,0,0,0,0,0,0,0,0,0,0,0,0,0,0,0,0,0,0,0,0,0,0,0,0,0,0,0,0,0,0,0,0,0,0,0,0,0,0,0,-3.9941,-3.9942,0,-3.9977,-3.9978,-3.9978,-3.997,-3.9969,-3.9969,-3.9968,-4.0001,-4.0003,-4.0004,0,0,0,0,0,0,0,0,0,0,0,0,0,-3.9863,-3.9864,-3.9941,-3.9942,-3.9942,-3.9977,-3.9978,-3.9978,-3.997,-3.9969,-3.9968,-3.9968,-4.0001,-4.0002,-4.0004,0,0,0,0,0,0,0,0,0,0,0,0,0,-3.9898,-3.9865,-3.9941,-3.9942,-3.9943,-3.9977,-3.9978,-3.9978,-3.997,-3.9969,-3.9968,-3.9967,-4.0,-4.0002,-4.0004,-4.0038,0,0,-4.0011,-4.0012,0,0,0,0,0,0,0,0,-3.9896,-3.99,-3.9942,-3.9942,-3.9943,-3.9968,-3.9962,-3.9998,-3.9971,-3.996,-3.9968,-3.9967,-3.9991,-3.9994,-4.0002,-4.004,-4.0041,-4.0012,-4.0013,-4.0014,-4.0014,0,0,0,0,0,0,0,-3.9893,-3.9899,-3.9955,-3.9942,-3.9943,-3.994,-3.9944,-3.9969,-3.998,-3.9961,-3.996,-3.9965,-3.9991,-4.0,-4.0003,-4.0042,-4.0011,-4.0013,-4.0015,-4.0016,-4.0112,-4.0113,0,0,0,0,0,0,-3.9891,-3.9897,-3.9954,-3.9956,-3.9916,-3.9943,-3.9947,-3.9961,-3.998,-3.9982,-3.9966,-3.9964,-3.9997,-4.0001,-4.0004,-4.0048,-4.0014,-4.0016,-4.0017,-4.0111,-4.0112,-4.0113,0,0,0,0,0,0,-3.9889,-3.9896,-3.9953,-3.9927,-3.9934,-3.9945,-3.9961,-3.9962,-3.9972,-3.9984,-3.9985,-3.9974,-3.9996,-4.0001,-4.0031,-4.0049,-4.0017,-4.0019,-4.0109,-4.0111,-4.0113,-4.0133,0,0,0,0,0,0,-3.9887,-3.9895,-3.9909,-3.9927,-3.9935,-3.9979,-3.9962,-3.9964,-3.9976,-3.9975,-3.9992,-3.9993,-3.9996,-4.0028,-4.0033,-4.0051,-4.0021,-4.0108,-4.011,-4.0112,-4.0131,-4.0136,-4.0139,0,0,0,0,0,-3.9884,-3.9912,-3.991,-3.9916,-3.9952,-3.998,-3.9985,-3.9988,-3.9978,-3.9991,-3.9999,-3.9993,-4.0046,-4.0031,-4.0037,-4.0056,-4.0107,-4.0109,-4.0112,-4.0129,-4.0135,-4.0139,0,0,0,0,0,0,-3.9893,-3.9914,-3.9912,-3.9946,-3.9962,-3.9979,-3.9996,-3.9994,-4.0011,-4.0009,-4.0012,-4.0015,-4.0046,-4.0054,-4.0037,-4.0091,-4.0074,-4.0078,-4.0086,-4.0091,-4.0095,-4.0093,-4.0023,0,0,0,0,0,-3.9899,-3.9922,-3.9938,-3.9967,-3.9975,-3.9984,-3.9997,-3.9998,-4.0014,-4.002,-4.003,-4.0045,-4.0065,-4.0078,-4.0097,-4.0132,-4.0136,-4.0148,-4.0152,-4.0155,-4.0159,-4.0181,-4.0187,-4.0122,-4.0122,-4.0122,0,0,-3.9912,-3.9926,-3.994,-3.9969,-3.9981,-4.0004,-3.999,-4.0014,-4.0031,-4.0023,-4.0053,-4.0061,-4.0077,-4.0111,-4.0126,-4.0118,-4.0178,-4.0159,-4.0161,-4.0164,-4.0184,-4.019,-4.0196,-4.0124,-4.0124,-4.0123,0,0,-3.9947,-3.996,-3.9987,-4.0,-4.002,-4.0026,-4.0033,-4.0051,-4.0057,-4.0087,-4.0083,-4.0102,-4.0136,-4.0149,-4.016,-4.0202,-4.0198,-4.0208,-4.023,-4.0251,-4.0256,-4.0261,-4.0278,-4.0284,-4.0212,-4.0212,-4.0212,0,-3.996,-3.9996,-4.0,-4.0026,-4.004,-4.0036,-4.0063,-4.0075,-4.0099,-4.0109,-4.01,-4.0144,-4.0155,-4.0192,-4.0203,-4.0211,-4.022,-4.0207,-4.0255,-4.026,-4.0264,-4.0281,-4.0287,-4.0213,-4.0213,-4.0213,-4.0213,0,-4.0012,-4.0036,-4.0055,-4.0082,-4.0097,-4.0123,-4.0132,-4.0147,-4.0148,-4.0155,-4.0187,-4.0199,-4.0222,-4.0231,-4.023,-4.0269,-4.0264,-4.0255,-4.0239,-4.0272,-4.0288,-4.0294,-4.0215,-4.0214,-4.0214,-4.0214,0,0,-4.0053,-4.0084,-4.0091,-4.0104,-4.0127,-4.0145,-4.0172,-4.0196,-4.021,-4.0226,-4.0249,-4.0279,-4.0272,-4.0285,-4.0286,-4.0304,-4.034,-4.0293,-4.0293,-4.0303,-4.0386,-4.0394,-4.0401,-4.0337,-4.0338,-4.0339,-4.0385,0,-4.0092,-4.0141,-4.0147,-4.019,-4.0214,-4.0212,-4.0235,-4.0251,-4.0259,-4.0279,-4.0287,-4.031,-4.0297,-4.0305,-4.0323,-4.0332,-4.0357,-4.0328,-4.0358,-4.036,-4.0357,-4.0409,-4.0417,-4.0461,-4.0391,-4.0392,-4.0393,0,-4.0144,-4.0166,-4.0213,-4.0235,-4.0245,-4.0266,-4.029,-4.0309,-4.0328,-4.0332,-4.0348,-4.0347,-4.0374,-4.0356,-4.0394,-4.0375,-4.0387,-4.0394,-4.0395,-4.04,-4.038,-4.0417,-4.0474,-4.0482,-4.0402,-4.0401,-4.0401,0,-4.0173,-4.0213,-4.0247,-4.0258,-4.0284,-4.0299,-4.031,-4.0328,-4.0343,-4.0363,-4.0373,-4.0395,-4.0408,-4.0425,-4.0431,-4.0417,-4.047,-4.0451,-4.0475,-4.0475,-4.0487,-4.0487,-4.055,-4.0492,-4.0492,-4.0492,-4.0492,0,-4.0218,-4.0247,-4.0261,-4.0282,-4.0315,-4.0321,-4.0353,-4.0363,-4.0379,-4.0402,-4.04,-4.0421,-4.0426,-4.0448,-4.0452,-4.0484,-4.0489,-4.0494,-4.0495,-4.0496,-4.0495,-4.0505,-4.0503,-4.0493,-4.0493,-4.0493,-4.0492,0,-4.0256,-4.0267,-4.0304,-4.0326,-4.0333,-4.0356,-4.0375,-4.0395,-4.0403,-4.0432,-4.0439,-4.0451,-4.0477,-4.0484,-4.0514,-4.0517,-4.0556,-4.0553,-4.0551,-4.0551,-4.0575,-4.0574,-4.0648,-4.0659,-4.0592,-4.0593,-4.0594,0,-4.0284,-4.0307,-4.0333,-4.035,-4.0362,-4.0387,-4.0404,-4.0411,-4.0427,-4.0452,-4.0469,-4.0495,-4.0517,-4.0559,-4.057,-4.0593,-4.0592,-4.0617,-4.0596,-4.0596,-4.0596,-4.0595,-4.0598,-4.0621,-4.0622,-4.0623,-4.0623,0,-4.0335,-4.034,-4.0364,-4.0392,-4.0412,-4.0433,-4.0453,-4.0466,-4.0475,-4.0494,-4.0523,-4.0539,-4.0572,-4.0599,-4.0623,-4.0633,-4.0631,-4.0629,-4.0637,-4.0638,-4.0637,-4.0641,-4.0564,-4.0628,-4.0627,-4.0627,-4.0627,-4.0627,-4.0371,-4.0392,-4.0415,-4.0443,-4.0459,-4.0479,-4.05,-4.0512,-4.0536,-4.0565,-4.0566,-4.0597,-4.0617,-4.065,-4.0662,-4.0685,-4.0678,-4.0688,-4.0691,-4.0693,-4.0697,-4.0632,-4.0689,-4.0689,-4.0689,-4.0689,-4.0689,0,-4.0423,-4.0438,-4.0464,-4.0494,-4.0517,-4.0513,-4.0536,-4.0554,-4.0582,-4.0601,-4.0624,-4.0657,-4.0683,-4.0697,-4.0723,-4.0739,-4.0739,-4.0746,-4.0746,-4.0749,-4.0701,-4.0693,-4.0746,-4.0746,-4.0746,-4.0746,-4.0746,-4.0746,-4.0453,-4.0491,-4.0499,-4.0544,-4.0558,-4.059,-4.0604,-4.0622,-4.0638,-4.0676,-4.0699,-4.0708,-4.0725,-4.0753,-4.0777,-4.078,-4.0791,-4.08,-4.0802,-4.0758,-4.0752,-4.0746,-4.0739,-4.0801,-4.0802,-4.0849,-4.0849,-4.085]}]]